Location: Asheville, NC
(35.6000°N, 82.5500°W)
Time: 09:36:55
(UTC-04:00)

Vanguard 2 - Pass Details

Date: 10 December 2017
Orbit: 553 x 2939 km, 32.9° (Epoch: 17 July)

Event Time Altitude Azimuth Distance (km) Brightness Sun altitude
Rises 15:07:58 0° 221° (SW) 4,741 13.2 19.6°
Reaches altitude 10° 15:12:22 10° 209° (SSW) 3,302 12.8 19.1°
Maximum altitude 15:18:12 23° 160° (SSE) 1,914 10.1 18.3°
Drops below altitude 10° 15:22:26 10° 108° (ESE) 2,307 9.8 17.7°
Sets 15:24:54 0° 93° (E) 3,031 10.2 17.4°
